Wind_Speed
76 77 74 65 60 60 63 62 56 49 34 28 28 26 28 24 29 29 23 30 36 35 39 33 34 40 50 53 54 53 51 48
76 72 64 62 64 65 61 64 56 55 39 34 39 37 37 39 37 37 40 43 39 27 31 27 27 36 41 45 47 46 44 37
69 65 64 61 67 65 57 56 51 49 44 42 46 48 44 43 43 41 42 44 44 43 27 27 24 27 32 36 37 29 26 23
64 63 64 62 65 65 56 49 48 48 46 46 53 53 47 44 47 50 50 50 46 46 38 24 20 22 23 24 23 17 16 17
66 65 62 62 66 59 53 44 41 41 43 46 56 55 53 51 54 49 53 50 48 44 37 38 25 21 18 17 19 17 18 17
67 63 61 64 63 55 44 36 35 38 43 47 58 58 64 57 58 59 53 50 47 45 45 41 26 25 23 20 20 21 19 22
62 60 58 63 58 46 36 29 35 42 46 50 56 59 65 67 58 64 59 51 51 45 44 39 32 28 26 25 25 28 22 23
66 59 59 62 46 39 30 31 38 43 47 49 52 53 59 70 73 53 61 59 50 48 46 39 34 38 34 30 28 29 23 22
65 63 61 48 38 33 30 34 39 44 46 46 48 46 53 64 76 68 56 57 56 53 52 54 47 40 41 31 32 33 26 22
63 60 57 38 36 29 34 36 41 42 42 44 47 43 46 48 68 74 64 55 57 57 57 58 46 42 42 44 36 40 34 33
68 62 47 36 34 31 33 37 39 41 39 40 42 43 47 55 60 71 70 57 59 55 57 57 54 50 43 40 36 35 38 40
66 56 39 38 30 32 32 36 38 39 37 39 42 42 45 48 54 64 62 58 56 57 58 54 55 47 46 46 40 41 40 44
61 43 36 36 31 32 33 37 37 36 36 36 39 39 40 42 48 50 59 58 59 59 55 57 58 55 55 51 50 49 47 48
46 38 38 30 31 32 33 36 35 34 34 35 36 37 39 40 43 45 56 59 67 62 60 57 52 50 49 48 47 43 44 46
38 38 36 30 32 31 32 35 31 32 30 31 32 32 35 41 38 39 50 59 57 61 65 60 55 46 46 46 43 42 43 49
36 39 30 31 32 32 34 29 31 25 28 28 26 28 34 35 42 36 40 51 52 52 55 59 56 52 50 48 47 48 50 52
41 34 32 33 34 34 33 27 24 23 21 23 23 27 30 36 44 45 42 40 50 56 51 46 48 52 53 51 50 50 51 48
38 35 35 35 34 36 30 26 22 20 19 22 26 31 32 34 37 46 46 43 46 49 49 49 49 50 48 53 52 53 58 53
38 37 37 36 34 34 27 25 20 15 18 23 28 32 33 33 30 29 40 42 39 49 50 51 48 50 51 53 57 58 62 57
42 41 39 38 33 29 28 24 19 16 14 24 32 33 31 28 31 35 32 37 35 40 47 49 55 53 58 56 59 60 55 55
Wind_Direction
283 285 284 278 274 271 269 264 263 266 256 231 205 201 210 236 257 265 264 259 272 286 264 261 251 245 248 251 251 253 257 264
282 280 277 278 280 277 273 271 266 259 246 229 203 199 207 217 221 240 250 255 256 272 271 263 257 252 252 256 258 259 262 267
277 276 279 284 289 281 275 268 257 253 238 224 208 201 207 214 214 220 236 245 246 249 261 264 271 266 265 268 268 263 263 255
279 283 289 289 283 281 279 271 255 245 237 219 207 207 207 214 211 219 225 235 241 238 241 269 273 271 270 267 259 245 253 244
284 286 288 287 285 283 277 263 249 240 234 216 206 209 210 210 215 216 221 233 238 228 238 250 262 257 252 249 248 254 261 244
284 287 289 285 286 281 267 251 235 229 222 211 207 210 210 215 219 218 223 235 242 241 251 261 240 248 232 248 253 254 262 243
288 289 288 287 284 271 251 230 222 219 217 213 211 212 213 217 217 223 225 234 240 243 249 241 254 237 228 233 248 265 252 237
287 289 294 287 275 258 227 215 215 218 219 218 216 219 221 223 218 222 229 232 243 239 248 245 239 250 239 240 246 252 251 260
290 290 290 283 263 231 213 211 221 224 220 223 221 226 226 226 221 222 225 230 240 241 248 251 254 233 242 237 248 256 261 246
289 286 284 265 246 211 210 216 223 226 221 227 226 226 230 230 226 223 224 231 235 237 241 246 243 234 238 254 255 251 249 258
286 286 272 251 227 206 209 221 226 229 228 231 233 231 233 233 229 229 227 230 229 231 238 241 241 245 239 245 243 245 251 263
283 280 253 240 211 206 213 225 230 234 236 236 232 236 235 232 229 230 231 228 224 232 236 237 241 235 237 239 240 248 254 264
281 257 234 222 204 207 218 231 236 239 238 240 240 239 237 231 231 225 224 220 218 220 229 237 236 243 245 247 250 253 259 258
266 236 223 208 202 210 222 234 235 238 241 241 242 235 231 223 219 217 211 216 217 220 223 230 234 242 241 245 250 259 255 250
245 221 208 200 205 213 225 230 234 240 239 243 241 236 222 217 209 215 210 212 220 224 231 234 237 238 242 248 249 253 256 247
220 205 196 197 207 217 223 229 234 238 246 247 245 231 217 212 202 205 219 212 219 227 231 237 235 239 245 244 250 258 253 253
204 191 193 201 212 217 219 227 235 239 249 247 232 214 210 204 199 209 218 221 212 222 228 235 230 231 237 245 256 253 258 257
191 189 195 205 215 215 217 230 231 242 248 238 212 212 206 203 210 218 224 224 217 215 224 231 233 236 242 242 247 251 258 260
189 192 200 210 212 213 219 224 225 237 241 222 208 211 209 211 215 214 225 224 219 216 221 226 235 237 241 244 246 249 253 256
192 197 204 210 210 209 217 218 217 232 239 212 208 209 216 213 218 214 216 216 216 217 225 230 231 234 237 242 247 249 250 257
Height
10714 10712 10712 10710 10711 10709 10707 10709 10715 10721 10728 10732 10738 10740 10747 10754 10754 10751 10747 10741 10734 10731 10726 10726 10728 10731 10732 10736 10739 10741 10744 10747
10701 10700 10698 10697 10695 10694 10696 10696 10702 10707 10716 10721 10724 10728 10733 10735 10735 10740 10737 10734 10733 10728 10720 10722 10724 10728 10731 10733 10736 10738 10741 10745
10686 10686 10686 10686 10681 10677 10680 10681 10685 10691 10700 10708 10714 10716 10719 10723 10728 10730 10727 10726 10725 10724 10721 10721 10723 10726 10728 10731 10732 10734 10736 10740
10673 10675 10675 10674 10668 10663 10665 10666 10670 10676 10684 10694 10702 10706 10707 10713 10717 10719 10718 10718 10718 10718 10719 10722 10724 10725 10726 10727 10729 10731 10734 10734
10664 10664 10664 10661 10654 10652 10651 10653 10657 10663 10671 10681 10690 10695 10698 10703 10707 10709 10711 10711 10711 10711 10714 10718 10723 10724 10724 10725 10727 10729 10729 10731
10652 10652 10651 10646 10640 10640 10640 10642 10646 10652 10660 10669 10678 10683 10687 10690 10696 10700 10702 10704 10704 10707 10711 10714 10720 10720 10722 10723 10725 10727 10727 10728
10640 10639 10638 10632 10629 10628 10630 10630 10637 10644 10651 10658 10665 10670 10675 10679 10683 10689 10692 10697 10698 10702 10706 10708 10716 10718 10719 10720 10722 10724 10725 10725
10627 10625 10624 10619 10618 10619 10620 10623 10631 10637 10642 10648 10654 10660 10664 10668 10676 10682 10687 10691 10692 10696 10699 10702 10711 10715 10717 10717 10718 10721 10723 10723
10613 10612 10610 10608 10609 10610 10612 10617 10624 10631 10636 10640 10646 10650 10655 10660 10667 10675 10680 10685 10687 10690 10692 10695 10705 10708 10712 10713 10716 10716 10718 10719
10602 10600 10597 10598 10601 10601 10606 10612 10619 10625 10629 10633 10638 10641 10645 10650 10658 10666 10674 10678 10678 10683 10686 10689 10696 10701 10705 10706 10710 10711 10712 10713
10589 10588 10586 10590 10593 10595 10601 10608 10613 10618 10622 10625 10629 10633 10636 10643 10651 10656 10664 10669 10672 10674 10676 10683 10688 10694 10698 10700 10703 10705 10706 10707
10575 10575 10577 10583 10584 10590 10596 10602 10607 10611 10614 10618 10620 10623 10626 10632 10637 10644 10653 10658 10663 10666 10669 10675 10682 10686 10690 10694 10696 10698 10700 10700
10562 10563 10569 10574 10578 10585 10590 10597 10600 10604 10606 10609 10611 10613 10618 10621 10627 10634 10641 10648 10654 10659 10662 10667 10675 10680 10683 10686 10689 10693 10694 10694
10551 10555 10562 10567 10572 10580 10586 10591 10594 10596 10598 10600 10602 10604 10607 10612 10617 10624 10631 10638 10645 10651 10655 10660 10667 10673 10675 10679 10681 10684 10685 10687
10541 10549 10555 10561 10569 10575 10581 10584 10586 10587 10589 10590 10593 10594 10598 10604 10608 10617 10622 10631 10636 10644 10649 10654 10661 10665 10667 10670 10674 10677 10679 10680
10535 10542 10549 10557 10565 10571 10575 10578 10580 10580 10582 10583 10585 10587 10591 10597 10603 10612 10616 10621 10630 10636 10641 10647 10653 10657 10659 10662 10666 10669 10670 10673
10529 10536 10544 10553 10560 10565 10568 10572 10573 10574 10576 10577 10579 10583 10588 10593 10599 10604 10609 10616 10623 10630 10635 10640 10645 10649 10653 10656 10658 10661 10663 10664
10524 10530 10540 10549 10555 10560 10564 10567 10567 10569 10571 10571 10575 10579 10585 10591 10596 10600 10604 10611 10618 10624 10630 10634 10639 10643 10647 10648 10650 10652 10653 10654
10520 10528 10537 10545 10550 10555 10559 10562 10562 10564 10566 10567 10572 10576 10582 10586 10590 10595 10598 10605 10611 10617 10623 10629 10633 10636 10639 10640 10641 10641 10642 10644
10517 10525 10533 10540 10545 10549 10555 10557 10557 10559 10561 10564 10569 10574 10580 10583 10587 10591 10595 10601 10607 10612 10617 10620 10623 10625 10627 10630 10631 10631 10632 10633